Terminal Aerodrome Forecast
Issued by NWS

Home | Current Version | Previous Version | Text Only | Print | Product List | Glossary On
Versions: 1 2 3 4 5 6 7 8 9 10 11 12 13 14 15 16 17 18 19 20 21 22 23 24 25 26 27 28 29 30 31 32 33 34 35 36 37 38 39 40 41 42 43 44 45 46 47 48 49 50
000
FTAK31 PANC 222148 AAE
TAFADQ
TAF AMD
PADQ 222148Z 2222/2318 10009KT P6SM SCT007 OVC012
      TEMPO 2222/2224 1SM BR BKN007 OVC012
     FM230000 10008KT P6SM SCT007 OVC012
     FM230400 11013KT 3SM -RA BR OVC008
     FM231200 12008KT P6SM BKN015 OVC040=

USA.gov is the U.S. government's official web portal to all federal, state and local government web resources and services.